Newburgh, NY

7:25 AM EST on November 18, 2017 (GMT -0500)
Stewart International

Weather History for KSWF - May, 2013

Change the Weather History Date:

Tuesday, May 14, 2013

  Actual Average Record
Temperature  
Mean Temperature 45 °F -  
Max Temperature 57 °F 66 °F 88 °F (1991)
Min Temperature 33 °F 45 °F 30 °F (1987)
Degree Days  
Heating Degree Days 20    
Moisture  
Dew Point 29 °F    
Average Humidity 57    
Maximum Humidity 93    
Minimum Humidity 14    
Precipitation  
Precipitation 0.00 in - - ()
Sea Level Pressure  
Sea Level Pressure 30.08 in    
Wind  
Wind Speed 7 mph (West)    
Max Wind Speed 16 mph    
Max Gust Speed 23 mph    
Visibility 16 miles    
Events      
Averages and records for this station are not official NWS values.
T = Trace of Precipitation, MM = Missing Value Source: NWS Daily Summary

Daily Weather History Graph

Daily Weather History Graph

Search for Another Location

Airport or City:

Trip Planner

Search our weather history database for the weather conditions in past years. The results will help you decide how hot, cold, wet, or windy it might be!

Date:

Astronomy

May. 14, 2013 Rise Set
Actual Time 5:38 AM EDT 8:08 PM EDT
Civil Twilight 5:06 AM EDT 8:39 PM EDT
Nautical Twilight 4:27 AM EDT 9:18 PM EDT
Astronomical Twilight 3:43 AM EDT 10:03 PM EDT
Moon 9:15 AM EDT (5/14) 11:53 PM EDT (5/14)
Length of Visible Light 15h 33m
Length of Day
14h 29m
Waxing Crescent, 19% of the Moon is Illuminated
May 14
Waxing Crescent
May 18
First Quarter
May 25
Full
May 31
Last Quarter
Jun 8
New

Hourly Weather History & Observations

Time (EDT) Temp. Windchill Dew Point Humidity Pressure Visibility Wind Dir Wind Speed Gust Speed Precip Events Conditions
12:45 AM 37.4 °F 32.8 °F 32.0 °F 81% 30.11 in 10.0 mi WNW 5.8 mph - N/A   Partly Cloudy
1:45 AM 35.6 °F 30.7 °F 32.0 °F 87% 30.11 in 10.0 mi West 5.8 mph - N/A   Partly Cloudy
2:45 AM 35.6 °F 30.7 °F 33.8 °F 93% 30.11 in 10.0 mi West 5.8 mph - N/A   Partly Cloudy
3:45 AM 35.6 °F 29.9 °F 33.8 °F 93% 30.11 in 10.0 mi WSW 6.9 mph - N/A   Partly Cloudy
4:45 AM 33.8 °F 27.7 °F 32.0 °F 93% 30.11 in 10.0 mi WSW 6.9 mph - N/A   Clear
5:45 AM 33.8 °F 27.7 °F 32.0 °F 93% 30.11 in 10.0 mi WSW 6.9 mph - N/A   Clear
6:45 AM 35.6 °F 29.9 °F 32.0 °F 87% 30.12 in 20.0 mi WSW 6.9 mph - N/A   Clear
7:45 AM 39.2 °F 34.2 °F 33.8 °F 81% 30.13 in 20.0 mi WSW 6.9 mph - N/A   Clear
8:45 AM 44.6 °F 42.2 °F 33.8 °F 66% 30.14 in 20.0 mi West 4.6 mph - N/A   Clear
9:45 AM 48.2 °F - 32.0 °F 54% 30.12 in 20.0 mi WNW 4.6 mph - N/A   Partly Cloudy
10:45 AM 50.0 °F - 30.2 °F 47% 30.11 in 20.0 mi Calm Calm - N/A   Scattered Clouds
11:45 AM 51.8 °F - 28.4 °F 41% 30.10 in 20.0 mi WNW 6.9 mph - N/A   Scattered Clouds
12:45 PM 55.4 °F - 26.6 °F 33% 30.00 in 20.0 mi Calm Calm - N/A   Scattered Clouds
1:45 PM 55.4 °F - 26.6 °F 33% 30.07 in 20.0 mi WNW 11.5 mph 23.0 mph N/A   Mostly Cloudy
2:45 PM 55.4 °F - 28.4 °F 36% 30.06 in 20.0 mi West 13.8 mph - N/A   Mostly Cloudy
3:45 PM 57.2 °F - 8.6 °F 14% 30.04 in 20.0 mi West 13.8 mph - N/A   Mostly Cloudy
4:45 PM 57.2 °F - 26.6 °F 31% 30.02 in 20.0 mi WNW 16.1 mph - N/A   Mostly Cloudy
5:45 PM 57.2 °F - 26.6 °F 31% 30.02 in 20.0 mi WNW 9.2 mph - N/A   Scattered Clouds
6:45 PM 57.2 °F - 26.6 °F 31% 30.03 in 20.0 mi West 16.1 mph - N/A   Scattered Clouds
7:45 PM 53.6 °F - 24.8 °F 33% 30.03 in 10.0 mi West 13.8 mph - N/A   Clear
8:45 PM 51.8 °F - 30.2 °F 44% 30.03 in 10.0 mi West 6.9 mph - N/A   Clear
9:45 PM 44.6 °F - 30.2 °F 57% 30.05 in 10.0 mi Calm Calm - N/A   Clear
10:45 PM 44.6 °F - 32.0 °F 61% 30.06 in 10.0 mi Calm Calm - N/A   Clear